Location: Cormont
(50.5693°N, 1.7416°E)
Time: 12:56:57
(UTC+00:00)

Abrixas rocket - Pass Details

Date: 21 October 2019
Orbit: 359 x 368 km, 48.4° (Epoch: 11 November)

Event Time Altitude Azimuth Distance (km) Brightness Sun altitude
Rises 17:49:49 0° 237° (WSW) 2,219 7.1 -10.2°
Reaches altitude 10° 17:51:57 10° 228° (SW) 1,371 5.7 -10.6°
Maximum altitude 17:54:47 34° 161° (SSE) 634 3.0 -11.0°
Enters shadow 17:56:34 18° 105° (ESE) 994 3.6 -11.3°
